Saint Augustine, FL

9:24 PM EST on February 25, 2017 (GMT -0500)
Saint Augustine

Weather History for KSGJ - December, 2013

Change the Weather History Date:

Sunday, December 8, 2013

  Actual Average Record
Temperature  
Mean Temperature 66 °F -  
Max Temperature 69 °F 66 °F 83 °F (1978)
Min Temperature 62 °F 50 °F 29 °F (1984)
Growing Degree Days 16 (Base 50)    
Moisture  
Dew Point 64 °F    
Average Humidity 96    
Maximum Humidity 100    
Minimum Humidity 93    
Precipitation  
Precipitation 0.00 in - - ()
Sea Level Pressure  
Sea Level Pressure 30.22 in    
Wind  
Wind Speed 5 mph (North)    
Max Wind Speed 12 mph    
Max Gust Speed -    
Visibility 2 miles    
Events Fog    
Averages and records for this station are not official NWS values.
T = Trace of Precipitation, MM = Missing Value Source: NWS Daily Summary

Daily Weather History Graph

Daily Weather History Graph

Search for Another Location

Airport or City:

Trip Planner

Search our weather history database for the weather conditions in past years. The results will help you decide how hot, cold, wet, or windy it might be!

Date:

Astronomy

Dec. 08, 2013 Rise Set
Actual Time 7:09 AM EST 5:25 PM EST
Civil Twilight 6:42 AM EST 5:51 PM EST
Nautical Twilight 6:13 AM EST 6:21 PM EST
Astronomical Twilight 5:43 AM EST 6:50 PM EST
Moon 11:48 AM EST (12/8) 11:51 PM EST (12/8)
Length of Visible Light 11h 09m
Length of Day
10h 16m
Waxing Crescent, 40% of the Moon is Illuminated
Dec 8
Waxing Crescent
Dec 9
First Quarter
Dec 17
Full
Dec 25
Last Quarter
Jan 1
New

Hourly Weather History & Observations

Time (EST) Temp. Dew Point Humidity Pressure Visibility Wind Dir Wind Speed Gust Speed Precip Events Conditions
12:58 AM 69.1 °F 66.9 °F 93% 30.22 in 10.0 mi South 3.5 mph - N/A   Clear
1:58 AM 66.9 °F 66.0 °F 97% 30.21 in 10.0 mi Calm Calm - N/A   Clear
2:58 AM 64.9 °F 64.0 °F 97% 30.21 in 10.0 mi Calm Calm - N/A   Clear
3:58 AM 64.0 °F 63.0 °F 96% 30.21 in 10.0 mi Calm Calm - N/A   Clear
4:58 AM 63.0 °F 62.1 °F 97% 30.21 in 10.0 mi Calm Calm - N/A   Clear
5:45 AM 62.6 °F 60.8 °F 94% 30.23 in 10.0 mi North 4.6 mph - N/A   Partly Cloudy
5:58 AM 63.0 °F 62.1 °F 97% 30.23 in 10.0 mi NW 3.5 mph - N/A   Partly Cloudy
6:32 AM 64.4 °F 62.6 °F 94% 30.24 in 8.0 mi North 3.5 mph - N/A   Mostly Cloudy
6:53 AM 64.4 °F 62.6 °F 94% 30.25 in 1.0 mi North 4.6 mph - N/A   Overcast
6:58 AM 64.0 °F 63.0 °F 96% 30.25 in 1.0 mi North 3.5 mph - N/A   Overcast
7:02 AM 64.4 °F 62.6 °F 94% 30.25 in 4.0 mi North 4.6 mph - N/A   Overcast
7:08 AM 64.4 °F 62.6 °F 94% 30.25 in 1.8 mi North 5.8 mph - N/A   Overcast
7:13 AM 64.4 °F 62.6 °F 94% 30.25 in 1.0 mi NNE 4.6 mph - N/A   Overcast
7:58 AM 64.0 °F 63.0 °F 96% 30.27 in 1.0 mi North 6.9 mph - N/A   Overcast
8:02 AM 64.4 °F 62.6 °F 94% 30.26 in 0.8 mi North 5.8 mph - N/A   Overcast
8:06 AM 64.4 °F 62.6 °F 94% 30.26 in 0.5 mi North 6.9 mph - N/A Fog Fog
8:18 AM 64.4 °F 62.6 °F 94% 30.27 in 0.2 mi North 6.9 mph - N/A Fog Fog
8:58 AM 64.9 °F 64.0 °F 97% 30.27 in 0.2 mi North 5.8 mph - N/A Fog Fog
9:21 AM 64.4 °F 64.4 °F 100% 30.28 in 0.5 mi NNE 5.8 mph - N/A Fog Fog
9:40 AM 64.4 °F 64.4 °F 100% 30.27 in 0.2 mi NNE 5.8 mph - N/A Fog Fog
9:58 AM 64.9 °F 64.0 °F 97% 30.28 in 0.2 mi North 6.9 mph - N/A Fog Fog
10:16 AM 64.4 °F 64.4 °F 100% 30.28 in 0.5 mi NNE 6.9 mph - N/A Fog Fog
10:38 AM 64.4 °F 64.4 °F 100% 30.28 in 0.8 mi North 6.9 mph - N/A   Overcast
10:44 AM 64.4 °F 64.4 °F 100% 30.28 in 0.5 mi NNE 6.9 mph - N/A Fog Fog
10:58 AM 64.9 °F 64.0 °F 97% 30.28 in 0.5 mi NNE 8.1 mph - N/A Fog Fog
11:03 AM 64.4 °F 64.4 °F 100% 30.27 in 0.8 mi NNE 6.9 mph - N/A   Overcast
11:10 AM 64.4 °F 64.4 °F 100% 30.27 in 0.5 mi NNE 10.4 mph - N/A Fog Fog
11:51 AM 66.2 °F 64.4 °F 94% 30.25 in 0.2 mi NNE 8.1 mph - N/A Fog Fog
11:58 AM 66.0 °F 64.9 °F 96% 30.25 in 0.2 mi NE 9.2 mph - N/A Fog Fog
12:58 PM 66.9 °F 64.9 °F 93% 30.22 in 0.2 mi NNE 5.8 mph - N/A Fog Fog
1:02 PM 66.2 °F 66.2 °F 100% 30.21 in 0.5 mi NNE 6.9 mph - N/A Fog Fog
1:27 PM 66.2 °F 64.4 °F 94% 30.20 in 0.2 mi NNE 9.2 mph - N/A Fog Fog
1:58 PM 66.9 °F 64.9 °F 93% 30.19 in 0.2 mi NNE 10.4 mph - N/A Fog Fog
2:58 PM 66.0 °F 64.9 °F 96% 30.17 in 0.2 mi NNE 8.1 mph - N/A Fog Fog
3:02 PM 66.2 °F 64.4 °F 94% 30.17 in 0.5 mi NNE 8.1 mph - N/A Fog Fog
3:09 PM 66.2 °F 64.4 °F 94% 30.17 in 0.2 mi North 8.1 mph - N/A Fog Fog
3:58 PM 66.0 °F 64.9 °F 96% 30.17 in 0.2 mi NNE 9.2 mph - N/A Fog Fog
4:02 PM 66.2 °F 64.4 °F 94% 30.17 in 0.5 mi North 11.5 mph - N/A Fog Fog
4:07 PM 66.2 °F 64.4 °F 94% 30.17 in 0.8 mi NNE 9.2 mph - N/A   Overcast
4:11 PM 66.2 °F 64.4 °F 94% 30.17 in 0.2 mi NNE 8.1 mph - N/A Fog Fog
4:58 PM 64.9 °F 64.0 °F 97% 30.18 in 0.2 mi North 10.4 mph - N/A Fog Fog
5:58 PM 64.9 °F 64.0 °F 97% 30.19 in 0.2 mi North 10.4 mph - N/A Fog Fog
6:02 PM 64.4 °F 64.4 °F 100% 30.19 in 0.8 mi North 9.2 mph - N/A   Overcast
6:07 PM 64.4 °F 64.4 °F 100% 30.19 in 1.0 mi North 5.8 mph - N/A   Overcast
6:12 PM 64.4 °F 64.4 °F 100% 30.19 in 1.2 mi North 9.2 mph - N/A   Overcast
6:17 PM 64.4 °F 64.4 °F 100% 30.19 in 1.0 mi North 9.2 mph - N/A   Overcast
6:58 PM 64.9 °F 64.0 °F 97% 30.20 in 0.5 mi North 5.8 mph - N/A Fog Fog
7:02 PM 64.4 °F 64.4 °F 100% 30.20 in 1.0 mi North 8.1 mph - N/A   Overcast
7:17 PM 64.4 °F 64.4 °F 100% 30.20 in 1.5 mi North 6.9 mph - N/A   Overcast
7:23 PM 64.4 °F 64.4 °F 100% 30.20 in 0.5 mi North 6.9 mph - N/A Fog Fog
7:42 PM 64.4 °F 64.4 °F 100% 30.21 in 0.8 mi North 3.5 mph - N/A   Overcast
7:58 PM 66.0 °F 64.9 °F 96% 30.21 in 0.8 mi North 5.8 mph - N/A   Overcast
8:02 PM 66.2 °F 64.4 °F 94% 30.21 in 5.0 mi North 5.8 mph - N/A   Overcast
8:25 PM 66.2 °F 64.4 °F 94% 30.21 in 6.0 mi NNW 3.5 mph - N/A   Overcast
8:58 PM 66.0 °F 64.9 °F 96% 30.21 in 6.0 mi WNW 3.5 mph - N/A   Overcast
9:58 PM 66.0 °F 64.9 °F 96% 30.21 in 5.0 mi North 8.1 mph - N/A   Overcast
10:08 PM 66.2 °F 64.4 °F 94% 30.21 in 6.0 mi NW 4.6 mph - N/A   Overcast
10:30 PM 66.2 °F 64.4 °F 94% 30.21 in 5.0 mi North 5.8 mph - N/A   Overcast
10:36 PM 66.2 °F 64.4 °F 94% 30.21 in 5.0 mi WNW 4.6 mph - N/A   Overcast
10:56 PM 66.2 °F 64.4 °F 94% 30.21 in 5.0 mi NNW 4.6 mph - N/A   Overcast
10:58 PM 66.0 °F 64.9 °F 96% 30.21 in 5.0 mi North 3.5 mph - N/A   Overcast
11:37 PM 66.2 °F 64.4 °F 94% 30.20 in 2.5 mi NNW 5.8 mph - N/A   Overcast
11:53 PM 66.2 °F 64.4 °F 94% 30.20 in 1.2 mi North 5.8 mph - N/A   Overcast
11:57 PM 66.0 °F 64.9 °F 96% 30.20 in 0.8 mi NNW 5.8 mph - N/A   Overcast